Regional Weather Roundup
Issued by NWS

Home | Current Version | Previous Version | Text Only | Print | Product List | Glossary Off
Versions: 1 2 3 4 5 6 7 8 9 10 11 12 13 14 15 16 17 18 19 20 21 22 23 24 25 26 27 28 29 30 31 32 33 34 35 36 37 38 39 40 41 42 43 44 45 46 47 48 49 50

764
ASUS45 KSLC 101910
RWRUT

UTAH REGIONAL WEATHER ROUNDUP
NATIONAL WEATHER SERVICE SALT LAKE CITY UT
1200 PM MST WED FEB 10 2016

UTZ001>011-023>025-102000-

NORTHERN UTAH

CITY           SKY/WX    TMP DP  RH WIND       PRES   REMARKS
BRIGHAM CITY   CLOUDY    28  26  93 N3        30.52S
HILL AFB       NOT AVBL
LOGAN          NOT AVBL
OGDEN          NOT AVBL
PROVO AIRPORT  FOG       21  19  93 CALM      30.48F VSB 1/4
SALT LAKE CITY FOG       30  28  92 N8        30.49F VSB 1/2 WCI  22
VERNAL         NOT AVBL
WENDOVER       NOT AVBL
HEBER CITY     MOSUNNY   30  21  69 CALM      30.42F
WEST JORDAN    MOSUNNY   30  28  93 CALM      30.48F

$$

UTZ012>022-026-027-102000-

SOUTHERN/CENTRAL UTAH

CITY           SKY/WX    TMP DP  RH WIND       PRES   REMARKS
BLANDING       SUNNY     39  26  59 CALM      30.53F
CEDAR CITY     NOT AVBL
DELTA          CLOUDY    17  16  94 CALM      30.50F
HANKSVILLE     SUNNY     36  28  75 CALM      30.50F
MILFORD        NOT AVBL
MOAB/CYNLANDS  NOT AVBL
PRICE          NOT AVBL
ST GEORGE      NOT AVBL
KANAB          MOSUNNY   59  27  29 CALM      30.44F

$$

REGIONAL REPORTS     COLORADO/ARIZONA

CITY           SKY/WX    TMP DP  RH WIND       PRES   REMARKS
CRAIG, CO      CLOUDY    20  14  77 SW5       30.40F WCI  13
GRAND JUNCTION SUNNY     35  23  61 N5        30.46F WCI  31
RIFLE          SUNNY     34  18  52 CALM      30.44F
MONTROSE       SUNNY     40  21  46 NW5       30.45F
CORTEZ         SUNNY     43  21  41 S3        30.46F
PAGE, AZ       SUNNY     45  30  55 N5        30.45F
GRAND CANYON   SUNNY     62  10  13 CALM      30.45F
KINGMAN        MOSUNNY   62  23  22 N7        30.34F
FLAGSTAFF      SUNNY     56   9  15 SW5       30.46F

$$

REGIONAL REPORTS    NEVADA/IDAHO/WYOMING

CITY           SKY/WX    TMP DP  RH WIND       PRES   REMARKS
LAS VEGAS, NV  MOSUNNY   63  26  24 NE6       30.31S
ELY            NOT AVBL
ELKO           MOSUNNY   18  12  77 SE3       30.49F
POCATELLO, ID  NOT AVBL
EVANSTON, WY   NOT AVBL
ROCK SPRINGS   NOT AVBL
KEMMERER       CLOUDY    36  19  51 W8        30.38F WCI  29

$$




USA.gov is the U.S. government's official web portal to all federal, state and local government web resources and services.